Portada
METAR-TAF:

METAR-TAF

Aeroports :

Williamson County Regional Airport

Marion, Illinois, Estats Units d'Amèrica

latitud: 37-45-01N, longitud: 089-00-04W, altitud: 144 m

Observació

L'informe es va fer fa 40 minuts, a les 19:45 UTC
Vent 7 kt del Est
Temperatura 32°C
Humitat 38%
Pressió 1016 hPa
Visibilitat: 24.1 km
Cel clar

METAR: KMWA 151945Z 09007KT 15SM CLR 32/16 A3000

Hora: 15:25 (20:25 UTC)


TAF: manca

Observacions i pronòstics meteorològics de més de 4000 aeroports (METAR i TAF).

Les estacions disponibles són els punts grocs i vermells al mapa.

Posi el ratolí al punt desitjat per veure el nom de l'estació.

Feu clic per veure les observacions i els pronòstics meteorològics.

Per canviar el mapa: feu clic els botons verds amb una creu de color negre per apropar; al botó verd amb un guió per allunyar la imatge; o en les fletxes verdes per a mapes adjacents.


METAR-TAF: